Weather in Atlanta

United States     33˚44′55″N   84˚23′32″W
temp.,
°C
wind,
m/s
gust,
m/s
humid.,
%
clouds,
%
prec.,
mm/h
press.,
hPa
HPBL,
m
27 november, fri
fri2701:00+14˚nw246326 0.0 1019218
04:00+13˚nw25650 0.0 1019271
07:00+12˚nw26610 0.0 1021249
10:00+15˚nw24489 0.0 1021281
13:00+20˚nw242624 0.0 1019547
16:00+20˚nw222781 0.0 1018554
19:00+18˚wnw113491 0.0 101840
22:00+17˚w1139100 0.0 101923
28 november, sat
sat2801:00+17˚nw1243100 0.1 101888
04:00+16˚nw1146100 0.0 101899
07:00+15˚nw2358100 0.4 1018227
10:00+17˚nnw235099 0.1 1020402
13:00+21˚nnw1234100 0.1 1019776
16:00+21˚nw1237100 0.0 10181154
19:00+18˚nw2453100 0.0 1019251
22:00+17˚nne1157100 0.0 102059
29 november, sun
sun2901:00+16˚sse1263100 0.0 1020136
04:00+15˚ese2473100 0.0 1019256
07:00+14˚e3671100 0.0 1020342
10:00+15˚ese4880100 0.1 1020489
13:00+15˚se5976100 0.4 1017691
16:00+15˚ese51084100 0.8 1014593
19:00+15˚se51191100 3.5 1011594
22:00+15˚sse51292100 5.1 1008720
30 november, mon
mon3001:00+17˚sw41189100 9.0 1007833
04:00+12˚wnw7127555 1.2 1008962
07:00+10˚wnw7127448 1.2 1010955
10:00+9˚wnw6968100 0.0 10111013
13:00+8˚wnw61064100 0.1 10111238
16:00+8˚wnw6964100 0.1 10111201
19:00+5˚wnw7106699 0.2 10131228
22:00+2˚wnw6107599 0.3 10151092
1 december, tue
tue101:00+1˚wnw6106499 0.4 10161097
04:00wnw6106894 0.0 1016899
07:00wnw6116193 0.0 1018974
10:00+1˚wnw59530 0.0 1020938
13:00+4˚wnw58350 0.0 10181135
16:00+6˚wnw58300 0.0 10181167
19:00+4˚wnw48350 0.0 1021901
22:00+3˚wnw37390 0.0 1022600